Location: Launois
(49.6535°N, 4.5395°E)
Time: 21:28:41
(UTC+00:00)

Cosmos 2333 Rocket - Pass Details

Date: 23 May 2024
Orbit: 839 x 863 km, 70.8° (Epoch: 14 June)

Event Time Altitude Azimuth Distance (km) Brightness Sun altitude
Rises 00:45:28 0° 333° (NNW) 3,422 6.1 -18.2°
Reaches altitude 10° 00:48:11 10° 343° (NNW) 2,488 5.5 -18.0°
Maximum altitude 00:53:17 32° 47° (NE) 1,429 4.0 -17.8°
Drops below altitude 10° 00:58:23 10° 109° (ESE) 2,491 4.6 -17.5°
Sets 01:01:06 0° 120° (ESE) 3,427 5.3 -17.4°
